This is the latest recevied weather packets stored in our database for station/object OE-11349. If no packets are shown the sender has not sent any weather packets the latest 10 day(s).
| Time | Temp. | Humidity | Pressure | Rain* | Wind** | Luminosity | Snow |
|---|---|---|---|---|---|---|---|
| 1787758882 | 19.44° C | 60% | 854.5 hPa | - | - | 303 W/m² | - |
| 1787758508 | 19.44° C | 58% | 854.5 hPa | - | - | 234 W/m² | - |
| 1787757909 | 20° C | 58% | 854.6 hPa | - | - | 310 W/m² | - |
| 1787757082 | 20° C | 58% | 854.7 hPa | - | - | 303 W/m² | - |
| 1787756709 | 20° C | 57% | 854.7 hPa | - | - | 220 W/m² | - |
| 1787756109 | 20° C | 55% | 854.7 hPa | - | - | 344 W/m² | - |
| 1787755282 | 20° C | 53% | 854.6 hPa | - | - | 427 W/m² | - |
| 1787754909 | 20.56° C | 53% | 854.6 hPa | - | - | 551 W/m² | - |
| 1787754309 | 20° C | 52% | 854.7 hPa | - | - | 633 W/m² | - |
| 1787753482 | 20° C | 52% | 854.7 hPa | - | - | 647 W/m² | - |
| 1787753109 | 20.56° C | 52% | 854.7 hPa | - | - | 716 W/m² | - |
| 1787752509 | 20.56° C | 51% | 854.7 hPa | - | - | 750 W/m² | - |
| 1787751682 | 20.56° C | 52% | 854.6 hPa | - | - | 743 W/m² | - |
| 1787751309 | 19.44° C | 51% | 854.6 hPa | - | - | 736 W/m² | - |
| 1787749882 | 19.44° C | 51% | 854.6 hPa | - | - | 736 W/m² | - |
| 1787749509 | 20° C | 51% | 854.6 hPa | - | - | 798 W/m² | - |
| 1787748909 | 19.44° C | 48% | 854.7 hPa | - | - | 372 W/m² | - |
| 1787748082 | 19.44° C | 48% | 854.7 hPa | - | - | 537 W/m² | - |
| 1787747709 | 19.44° C | 48% | 854.8 hPa | - | - | 888 W/m² | - |
| 1787747108 | 19.44° C | 50% | 854.8 hPa | - | - | 736 W/m² | - |
| 1787746282 | 19.44° C | 51% | 854.8 hPa | - | - | 427 W/m² | - |
| 1787745909 | 19.44° C | 51% | 854.6 hPa | - | - | 826 W/m² | - |
| 1787745308 | 19.44° C | 51% | 854.6 hPa | - | - | 902 W/m² | - |
| 1787744481 | 19.44° C | 53% | 854.6 hPa | - | - | 778 W/m² | - |
| 1787744109 | 18.89° C | 50% | 854.9 hPa | - | - | 695 W/m² | - |
* Rain since midnight (hover to see other rain measurements)
** Current wind speed in m/s (hover to see current wind gust speed)